Location: Brantley
(31.5822°N, 86.2569°W)
Time: 17:03:27
(UTC+00:00)

Injun/Solrad 3 - Pass Details

Date: 18 February 2026
Orbit: 871 x 985 km, 66.8° (Epoch: 11 March)

Event Time Altitude Azimuth Distance (km) Brightness Sun altitude
Rises 16:06:42 0° 197° (SSW) 3,444 11.3 39.2°
Reaches altitude 10° 16:09:10 10° 195° (SSW) 2,508 10.7 39.6°
Maximum altitude 16:14:55 71° 112° (ESE) 922 9.0 40.3°
Drops below altitude 10° 16:20:45 10° 30° (NNE) 2,544 10.1 40.9°
Sets 16:23:16 0° 28° (NNE) 3,498 10.7 41.2°
